Time,TemperatureF,DewpointF,PressureIn,WindDirection,WindDirectionDegrees,WindSpeedMPH,WindSpeedGustMPH,Humidity,HourlyPrecipIn,Conditions,Clouds,dailyrainin,SoftwareType,DateUTC
2013-04-05 00:04:00,13.8,0.3,30.60,NE,53,5.0,19.0,54,0.00,,,0.00,LWC V2.10 B1813,2013-04-05 08:04:00,
2013-04-05 00:09:00,13.9,0.4,30.59,NE,49,9.0,22.0,54,0.00,,,0.00,LWC V2.10 B1813,2013-04-05 08:09:00,
2013-04-05 00:14:00,13.9,0.4,30.59,NE,42,7.0,16.0,54,0.00,,,0.00,LWC V2.10 B1813,2013-04-05 08:14:00,
2013-04-05 00:19:00,13.7,0.2,30.59,North,11,13.0,17.0,54,0.00,,,0.00,LWC V2.10 B1813,2013-04-05 08:19:00,
2013-04-05 00:24:00,13.7,0.2,30.59,North,5,9.0,13.0,54,0.00,,,0.00,LWC V2.10 B1813,2013-04-05 08:24:00,
2013-04-05 00:29:00,13.7,0.2,30.58,NE,49,9.0,14.0,54,0.00,,,0.00,LWC V2.10 B1813,2013-04-05 08:29:00,
2013-04-05 00:34:00,13.7,0.2,30.58,NE,53,10.0,15.0,54,0.00,,,0.00,LWC V2.10 B1813,2013-04-05 08:34:00,
2013-04-05 00:39:00,13.6,0.1,30.58,North,11,2.0,20.0,54,0.00,,,0.00,LWC V2.10 B1813,2013-04-05 08:39:00,
2013-04-05 00:44:00,13.7,0.2,30.58,NNE,26,5.0,15.0,54,0.00,,,0.00,LWC V2.10 B1813,2013-04-05 08:44:00,
2013-04-05 00:49:00,13.6,0.5,30.57,NE,52,13.0,14.0,55,0.00,,,0.00,LWC V2.10 B1813,2013-04-05 08:49:00,
2013-04-05 00:54:00,13.5,0.4,30.58,NE,47,4.0,15.0,55,0.00,,,0.00,LWC V2.10 B1813,2013-04-05 08:54:00,
2013-04-05 00:59:00,13.5,0.4,30.58,NE,35,13.0,20.0,55,0.00,,,0.00,LWC V2.10 B1813,2013-04-05 08:59:00,
2013-04-05 01:04:00,13.5,0.4,30.57,NE,41,10.0,21.0,55,0.00,,,0.00,LWC V2.10 B1813,2013-04-05 09:04:00,
2013-04-05 01:09:00,13.6,0.1,30.57,NE,51,14.0,18.0,54,0.00,,,0.00,LWC V2.10 B1813,2013-04-05 09:09:00,
2013-04-05 01:14:00,13.7,0.2,30.57,ENE,59,7.0,20.0,54,0.00,,,0.00,LWC V2.10 B1813,2013-04-05 09:14:00,
2013-04-05 01:19:00,13.7,-0.2,30.57,NE,56,9.0,19.0,53,0.00,,,0.00,LWC V2.10 B1813,2013-04-05 09:19:00,
2013-04-05 01:24:00,13.7,0.2,30.56,NE,44,14.0,20.0,54,0.00,,,0.00,LWC V2.10 B1813,2013-04-05 09:24:00,
2013-04-05 01:29:00,13.6,-0.3,30.56,NE,50,16.0,21.0,53,0.00,,,0.00,LWC V2.10 B1813,2013-04-05 09:29:00,
2013-04-05 01:34:00,13.6,-0.3,30.56,North,10,9.0,21.0,53,0.00,,,0.00,LWC V2.10 B1813,2013-04-05 09:34:00,
2013-04-05 01:39:00,13.7,-0.2,30.56,NE,46,16.0,20.0,53,0.00,,,0.00,LWC V2.10 B1813,2013-04-05 09:39:00,
2013-04-05 01:44:00,13.7,-0.2,30.55,ENE,61,18.0,18.0,53,0.00,,,0.00,LWC V2.10 B1813,2013-04-05 09:44:00,
2013-04-05 01:49:00,13.6,-0.3,30.55,NE,39,12.0,13.0,53,0.00,,,0.00,LWC V2.10 B1813,2013-04-05 09:49:00,
2013-04-05 01:54:00,13.4,-0.9,30.55,NE,51,11.0,22.0,52,0.00,,,0.00,LWC V2.10 B1813,2013-04-05 09:54:00,
2013-04-05 01:59:00,13.5,-0.8,30.55,NE,42,14.0,16.0,52,0.00,,,0.00,LWC V2.10 B1813,2013-04-05 09:59:00,
2013-04-05 02:04:00,13.3,-1.0,30.55,NNE,21,12.0,22.0,52,0.00,,,0.00,LWC V2.10 B1813,2013-04-05 10:04:00,
2013-04-05 02:09:00,13.2,-1.1,30.55,ENE,65,10.0,18.0,52,0.00,,,0.00,LWC V2.10 B1813,2013-04-05 10:09:00,
2013-04-05 02:14:00,13.1,-0.8,30.55,NE,50,11.0,17.0,53,0.00,,,0.00,LWC V2.10 B1813,2013-04-05 10:14:00,
2013-04-05 02:19:00,13.0,-1.3,30.54,NE,48,11.0,22.0,52,0.00,,,0.00,LWC V2.10 B1813,2013-04-05 10:19:00,
2013-04-05 02:24:00,12.9,-1.4,30.55,NNE,32,7.0,19.0,52,0.00,,,0.00,LWC V2.10 B1813,2013-04-05 10:24:00,
2013-04-05 02:29:00,12.8,-1.9,30.54,NE,34,10.0,20.0,51,0.00,,,0.00,LWC V2.10 B1813,2013-04-05 10:29:00,
2013-04-05 02:34:00,12.7,-2.4,30.54,NE,37,16.0,18.0,50,0.00,,,0.00,LWC V2.10 B1813,2013-04-05 10:34:00,
2013-04-05 02:39:00,12.7,-2.8,30.54,NE,40,10.0,19.0,49,0.00,,,0.00,LWC V2.10 B1813,2013-04-05 10:39:00,
2013-04-05 02:44:00,12.6,-3.3,30.53,ENE,59,20.0,23.0,48,0.00,,,0.00,LWC V2.10 B1813,2013-04-05 10:44:00,
2013-04-05 02:49:00,12.6,-2.9,30.53,NNE,30,16.0,21.0,49,0.00,,,0.00,LWC V2.10 B1813,2013-04-05 10:49:00,
2013-04-05 02:54:00,12.5,-3.9,30.53,NE,50,14.0,22.0,47,0.00,,,0.00,LWC V2.10 B1813,2013-04-05 10:54:00,
2013-04-05 02:59:00,12.4,-3.9,30.53,NNE,24,10.0,18.0,47,0.00,,,0.00,LWC V2.10 B1813,2013-04-05 10:59:00,
2013-04-05 03:04:00,12.2,-3.7,30.53,NNE,26,15.0,20.0,48,0.00,,,0.00,LWC V2.10 B1813,2013-04-05 11:04:00,
2013-04-05 03:09:00,12.1,-4.2,30.53,NNE,18,12.0,16.0,47,0.00,,,0.00,LWC V2.10 B1813,2013-04-05 11:09:00,
2013-04-05 03:14:00,11.9,-4.0,30.52,ENE,59,13.0,15.0,48,0.00,,,0.00,LWC V2.10 B1813,2013-04-05 11:14:00,
2013-04-05 03:19:00,11.7,-4.2,30.52,NE,34,8.0,12.0,48,0.00,,,0.00,LWC V2.10 B1813,2013-04-05 11:19:00,
2013-04-05 03:24:00,11.4,-4.4,30.52,NE,49,12.0,15.0,48,0.00,,,0.00,LWC V2.10 B1813,2013-04-05 11:24:00,
2013-04-05 03:29:00,11.2,-4.6,30.52,NE,36,10.0,15.0,48,0.00,,,0.00,LWC V2.10 B1813,2013-04-05 11:29:00,
2013-04-05 03:34:00,11.0,-4.8,30.52,NNW,337,7.0,16.0,48,0.00,,,0.00,LWC V2.10 B1813,2013-04-05 11:34:00,
2013-04-05 03:39:00,10.9,-4.9,30.52,NE,36,8.0,13.0,48,0.00,,,0.00,LWC V2.10 B1813,2013-04-05 11:39:00,
2013-04-05 03:44:00,10.9,-4.9,30.51,NE,45,9.0,16.0,48,0.00,,,0.00,LWC V2.10 B1813,2013-04-05 11:44:00,
2013-04-05 03:49:00,10.7,-4.7,30.51,NW,325,6.0,15.0,49,0.00,,,0.00,LWC V2.10 B1813,2013-04-05 11:49:00,
2013-04-05 03:54:00,10.7,-5.1,30.51,NNE,32,10.0,13.0,48,0.00,,,0.00,LWC V2.10 B1813,2013-04-05 11:54:00,
2013-04-05 03:59:00,10.7,-5.1,30.51,NE,37,13.0,17.0,48,0.00,,,0.00,LWC V2.10 B1813,2013-04-05 11:59:00,
2013-04-05 04:04:00,10.8,-5.4,30.51,North,10,7.0,14.0,47,0.00,,,0.00,LWC V2.10 B1813,2013-04-05 12:04:00,
2013-04-05 04:09:00,10.7,-5.1,30.50,NE,40,14.0,17.0,48,0.00,,,0.00,LWC V2.10 B1813,2013-04-05 12:09:00,
2013-04-05 04:14:00,10.8,-5.0,30.50,NE,51,9.0,21.0,48,0.00,,,0.00,LWC V2.10 B1813,2013-04-05 12:14:00,
2013-04-05 04:19:00,10.7,-5.1,30.50,NNE,22,7.0,21.0,48,0.00,,,0.00,LWC V2.10 B1813,2013-04-05 12:19:00,
2013-04-05 04:24:00,10.6,-5.2,30.50,NE,53,11.0,15.0,48,0.00,,,0.00,LWC V2.10 B1813,2013-04-05 12:24:00,
2013-04-05 04:29:00,10.4,-5.8,30.50,NNE,32,9.0,21.0,47,0.00,,,0.00,LWC V2.10 B1813,2013-04-05 12:29:00,
2013-04-05 04:34:00,10.4,-5.8,30.50,NE,50,11.0,20.0,47,0.00,,,0.00,LWC V2.10 B1813,2013-04-05 12:34:00,
2013-04-05 04:39:00,10.4,-5.8,30.49,NE,48,17.0,17.0,47,0.00,,,0.00,LWC V2.10 B1813,2013-04-05 12:39:00,
2013-04-05 04:44:00,10.3,-5.9,30.49,NNE,24,13.0,19.0,47,0.00,,,0.00,LWC V2.10 B1813,2013-04-05 12:44:00,
2013-04-05 04:49:00,10.1,-5.6,30.49,NE,46,15.0,19.0,48,0.00,,,0.00,LWC V2.10 B1813,2013-04-05 12:49:00,
2013-04-05 04:54:00,10.1,-6.1,30.49,ENE,61,18.0,18.0,47,0.00,,,0.00,LWC V2.10 B1813,2013-04-05 12:54:00,
2013-04-05 04:59:00,10.0,-6.2,30.48,NE,34,9.0,17.0,47,0.00,,,0.00,LWC V2.10 B1813,2013-04-05 12:59:00,
2013-04-05 05:04:00,9.9,-5.8,30.48,ENE,57,21.0,21.0,48,0.00,,,0.00,LWC V2.10 B1813,2013-04-05 13:04:00,
2013-04-05 05:09:00,9.9,-6.3,30.48,NNE,15,14.0,24.0,47,0.00,,,0.00,LWC V2.10 B1813,2013-04-05 13:09:00,
2013-04-05 05:14:00,9.8,-5.9,30.48,NNE,19,16.0,19.0,48,0.00,,,0.00,LWC V2.10 B1813,2013-04-05 13:14:00,
2013-04-05 05:19:00,9.5,-6.2,30.47,NNW,331,2.0,19.0,48,0.00,,,0.00,LWC V2.10 B1813,2013-04-05 13:19:00,
2013-04-05 05:24:00,9.4,-6.3,30.47,NE,48,8.0,19.0,48,0.00,,,0.00,LWC V2.10 B1813,2013-04-05 13:24:00,
2013-04-05 05:29:00,9.4,-6.3,30.47,NNE,33,16.0,21.0,48,0.00,,,0.00,LWC V2.10 B1813,2013-04-05 13:29:00,
2013-04-05 05:34:00,9.5,-6.2,30.47,NNE,22,12.0,25.0,48,0.00,,,0.00,LWC V2.10 B1813,2013-04-05 13:34:00,
2013-04-05 05:39:00,9.5,-6.6,30.47,NNE,22,13.0,24.0,47,0.00,,,0.00,LWC V2.10 B1813,2013-04-05 13:39:00,
2013-04-05 05:44:00,9.5,-6.6,30.47,NE,45,11.0,16.0,47,0.00,,,0.00,LWC V2.10 B1813,2013-04-05 13:44:00,
2013-04-05 05:49:00,9.4,-6.7,30.47,NNE,16,11.0,17.0,47,0.00,,,0.00,LWC V2.10 B1813,2013-04-05 13:49:00,
2013-04-05 05:54:00,9.3,-6.8,30.46,NE,42,5.0,25.0,47,0.00,,,0.00,LWC V2.10 B1813,2013-04-05 13:54:00,
2013-04-05 05:59:00,9.3,-6.4,30.46,NE,52,6.0,15.0,48,0.00,,,0.00,LWC V2.10 B1813,2013-04-05 13:59:00,
2013-04-05 06:04:00,9.2,-6.9,30.46,ENE,61,16.0,19.0,47,0.00,,,0.00,LWC V2.10 B1813,2013-04-05 14:04:00,
2013-04-05 06:09:00,9.1,-7.0,30.45,North,355,7.0,19.0,47,0.00,,,0.00,LWC V2.10 B1813,2013-04-05 14:09:00,
2013-04-05 06:14:00,9.2,-6.9,30.45,NE,39,13.0,20.0,47,0.00,,,0.00,LWC V2.10 B1813,2013-04-05 14:14:00,
2013-04-05 06:19:00,9.3,-6.8,30.45,NNE,17,13.0,19.0,47,0.00,,,0.00,LWC V2.10 B1813,2013-04-05 14:19:00,
2013-04-05 06:24:00,9.3,-6.4,30.45,NE,49,8.0,18.0,48,0.00,,,0.00,LWC V2.10 B1813,2013-04-05 14:24:00,
2013-04-05 06:29:00,9.1,-6.6,30.45,ENE,72,10.0,14.0,48,0.00,,,0.00,LWC V2.10 B1813,2013-04-05 14:29:00,
2013-04-05 06:34:00,9.1,-6.1,30.45,NNE,12,15.0,23.0,49,0.00,,,0.00,LWC V2.10 B1813,2013-04-05 14:34:00,
2013-04-05 06:39:00,9.1,-6.6,30.44,NE,34,18.0,21.0,48,0.00,,,0.00,LWC V2.10 B1813,2013-04-05 14:39:00,
2013-04-05 06:44:00,9.2,-6.5,30.45,NE,36,9.0,24.0,48,0.00,,,0.00,LWC V2.10 B1813,2013-04-05 14:44:00,
2013-04-05 06:49:00,9.1,-6.6,30.44,NE,49,10.0,22.0,48,0.00,,,0.00,LWC V2.10 B1813,2013-04-05 14:49:00,
2013-04-05 06:54:00,9.2,-6.5,30.44,ENE,71,19.0,23.0,48,0.00,,,0.00,LWC V2.10 B1813,2013-04-05 14:54:00,
2013-04-05 06:59:00,9.2,-6.0,30.44,NNE,32,18.0,18.0,49,0.00,,,0.00,LWC V2.10 B1813,2013-04-05 14:59:00,
2013-04-05 07:04:00,9.3,-5.9,30.43,NE,52,24.0,24.0,49,0.00,,,0.00,LWC V2.10 B1813,2013-04-05 15:04:00,
2013-04-05 07:09:00,9.4,-6.3,30.44,ENE,57,16.0,23.0,48,0.00,,,0.00,LWC V2.10 B1813,2013-04-05 15:09:00,
2013-04-05 07:14:00,9.3,-5.9,30.44,North,9,9.0,15.0,49,0.00,,,0.00,LWC V2.10 B1813,2013-04-05 15:14:00,
2013-04-05 07:19:00,9.2,-6.0,30.43,North,10,5.0,16.0,49,0.00,,,0.00,LWC V2.10 B1813,2013-04-05 15:19:00,
2013-04-05 07:24:00,9.2,-6.0,30.43,NE,38,13.0,21.0,49,0.00,,,0.00,LWC V2.10 B1813,2013-04-05 15:24:00,
2013-04-05 07:29:00,9.0,-6.2,30.43,ENE,68,16.0,24.0,49,0.00,,,0.00,LWC V2.10 B1813,2013-04-05 15:29:00,
2013-04-05 07:34:00,9.2,-6.0,30.43,ENE,73,9.0,25.0,49,0.00,,,0.00,LWC V2.10 B1813,2013-04-05 15:34:00,
2013-04-05 07:39:00,9.3,-6.4,30.43,NE,54,8.0,19.0,48,0.00,,,0.00,LWC V2.10 B1813,2013-04-05 15:39:00,
2013-04-05 07:44:00,9.5,-5.8,30.43,NNE,14,9.0,16.0,49,0.00,,,0.00,LWC V2.10 B1813,2013-04-05 15:44:00,
2013-04-05 07:49:00,9.8,-5.5,30.43,NE,49,14.0,18.0,49,0.00,,,0.00,LWC V2.10 B1813,2013-04-05 15:49:00,
2013-04-05 07:54:00,10.0,-5.7,30.43,NNE,32,17.0,21.0,48,0.00,,,0.00,LWC V2.10 B1813,2013-04-05 15:54:00,
2013-04-05 07:59:00,10.3,-5.4,30.43,NE,53,10.0,13.0,48,0.00,,,0.00,LWC V2.10 B1813,2013-04-05 15:59:00,
2013-04-05 08:04:00,10.7,-5.1,30.43,NNE,23,14.0,16.0,48,0.00,,,0.00,LWC V2.10 B1813,2013-04-05 16:04:00,
2013-04-05 08:09:00,10.9,-5.3,30.43,NNE,28,10.0,16.0,47,0.00,,,0.00,LWC V2.10 B1813,2013-04-05 16:09:00,
2013-04-05 08:14:00,11.1,-5.1,30.43,NE,34,8.0,16.0,47,0.00,,,0.00,LWC V2.10 B1813,2013-04-05 16:14:00,
2013-04-05 08:19:00,11.2,-5.5,30.43,NE,48,5.0,10.0,46,0.00,,,0.00,LWC V2.10 B1813,2013-04-05 16:19:00,
2013-04-05 08:24:00,11.4,-5.8,30.43,NNE,33,8.0,14.0,45,0.00,,,0.00,LWC V2.10 B1813,2013-04-05 16:24:00,
2013-04-05 08:29:00,11.6,-6.0,30.42,North,355,3.0,13.0,44,0.00,,,0.00,LWC V2.10 B1813,2013-04-05 16:29:00,
2013-04-05 08:34:00,11.8,-5.9,30.42,NNE,30,6.0,13.0,44,0.00,,,0.00,LWC V2.10 B1813,2013-04-05 16:34:00,
2013-04-05 08:39:00,12.1,-6.1,30.42,North,0,14.0,15.0,43,0.00,,,0.00,LWC V2.10 B1813,2013-04-05 16:39:00,
2013-04-05 08:44:00,12.1,-6.1,30.42,NNE,29,3.0,17.0,43,0.00,,,0.00,LWC V2.10 B1813,2013-04-05 16:44:00,
2013-04-05 08:49:00,11.9,-5.8,30.42,NE,53,9.0,17.0,44,0.00,,,0.00,LWC V2.10 B1813,2013-04-05 16:49:00,
2013-04-05 08:54:00,11.8,-5.9,30.42,NNE,28,7.0,9.0,44,0.00,,,0.00,LWC V2.10 B1813,2013-04-05 16:54:00,
2013-04-05 08:59:00,12.1,-6.1,30.42,ENE,63,13.0,14.0,43,0.00,,,0.00,LWC V2.10 B1813,2013-04-05 16:59:00,
2013-04-05 09:04:00,12.4,-6.3,30.42,ENE,63,10.0,16.0,42,0.00,,,0.00,LWC V2.10 B1813,2013-04-05 17:04:00,
2013-04-05 09:09:00,12.7,-6.5,30.41,ENE,69,8.0,14.0,41,0.00,,,0.00,LWC V2.10 B1813,2013-04-05 17:09:00,
2013-04-05 09:14:00,12.8,-6.4,30.41,ENE,61,14.0,18.0,41,0.00,,,0.00,LWC V2.10 B1813,2013-04-05 17:14:00,
2013-04-05 09:19:00,13.0,-6.7,30.41,NE,34,9.0,17.0,40,0.00,,,0.00,LWC V2.10 B1813,2013-04-05 17:19:00,
2013-04-05 09:24:00,12.7,-6.5,30.41,NE,56,16.0,16.0,41,0.00,,,0.00,LWC V2.10 B1813,2013-04-05 17:24:00,
2013-04-05 09:29:00,12.7,-6.5,30.41,NE,55,14.0,14.0,41,0.00,,,0.00,LWC V2.10 B1813,2013-04-05 17:29:00,
2013-04-05 09:34:00,13.1,-5.6,30.41,NNE,33,17.0,20.0,42,0.00,,,0.00,LWC V2.10 B1813,2013-04-05 17:34:00,
2013-04-05 09:39:00,13.4,-5.9,30.41,North,0,11.0,14.0,41,0.00,,,0.00,LWC V2.10 B1813,2013-04-05 17:39:00,
2013-04-05 09:44:00,13.6,-5.7,30.40,ENE,58,9.0,14.0,41,0.00,,,0.00,LWC V2.10 B1813,2013-04-05 17:44:00,
2013-04-05 09:49:00,13.6,-5.7,30.40,NE,37,11.0,21.0,41,0.00,,,0.00,LWC V2.10 B1813,2013-04-05 17:49:00,
2013-04-05 09:54:00,13.6,-5.7,30.40,NE,37,9.0,15.0,41,0.00,,,0.00,LWC V2.10 B1813,2013-04-05 17:54:00,
2013-04-05 09:59:00,13.5,-5.3,30.40,NNE,12,5.0,12.0,42,0.00,,,0.00,LWC V2.10 B1813,2013-04-05 17:59:00,
2013-04-05 10:04:00,13.8,-5.0,30.40,ENE,57,7.0,19.0,42,0.00,,,0.00,LWC V2.10 B1813,2013-04-05 18:04:00,
2013-04-05 10:09:00,14.0,-4.8,30.40,ENE,57,10.0,17.0,42,0.00,,,0.00,LWC V2.10 B1813,2013-04-05 18:09:00,
2013-04-05 10:14:00,13.5,-6.3,30.40,NNE,28,14.0,22.0,40,0.00,,,0.00,LWC V2.10 B1813,2013-04-05 18:14:00,
2013-04-05 10:19:00,13.6,-5.2,30.40,NE,49,8.0,23.0,42,0.00,,,0.00,LWC V2.10 B1813,2013-04-05 18:19:00,
2013-04-05 10:24:00,13.8,-5.5,30.40,NNE,24,8.0,22.0,41,0.00,,,0.00,LWC V2.10 B1813,2013-04-05 18:24:00,
2013-04-05 10:29:00,13.8,-5.0,30.40,NNE,28,6.0,17.0,42,0.00,,,0.00,LWC V2.10 B1813,2013-04-05 18:29:00,
2013-04-05 10:34:00,14.0,-2.5,30.40,NNE,17,6.0,22.0,47,0.00,,,0.00,LWC V2.10 B1813,2013-04-05 18:34:00,
2013-04-05 10:39:00,14.0,-4.3,30.39,NNE,30,13.0,25.0,43,0.00,,,0.00,LWC V2.10 B1813,2013-04-05 18:39:00,
2013-04-05 10:44:00,13.8,-4.0,30.39,NE,36,6.0,24.0,44,0.00,,,0.00,LWC V2.10 B1813,2013-04-05 18:44:00,
2013-04-05 10:49:00,12.8,-5.4,30.40,North,349,8.0,22.0,43,0.00,,,0.00,LWC V2.10 B1813,2013-04-05 18:49:00,
2013-04-05 10:54:00,12.8,-5.4,30.39,NNE,26,7.0,28.0,43,0.00,,,0.00,LWC V2.10 B1813,2013-04-05 18:54:00,
2013-04-05 10:59:00,13.0,-4.8,30.39,NNE,32,18.0,22.0,44,0.00,,,0.00,LWC V2.10 B1813,2013-04-05 18:59:00,
2013-04-05 11:04:00,13.5,-3.8,30.39,NNE,26,15.0,21.0,45,0.00,,,0.00,LWC V2.10 B1813,2013-04-05 19:04:00,
2013-04-05 11:09:00,13.6,-4.2,30.39,NE,56,8.0,22.0,44,0.00,,,0.00,LWC V2.10 B1813,2013-04-05 19:09:00,
2013-04-05 11:14:00,13.5,-4.3,30.39,NNE,24,13.0,17.0,44,0.00,,,0.00,LWC V2.10 B1813,2013-04-05 19:14:00,
2013-04-05 11:19:00,13.4,-4.9,30.39,NE,38,16.0,17.0,43,0.00,,,0.00,LWC V2.10 B1813,2013-04-05 19:19:00,
2013-04-05 11:24:00,13.6,-4.7,30.39,NNW,341,12.0,29.0,43,0.00,,,0.00,LWC V2.10 B1813,2013-04-05 19:24:00,
2013-04-05 11:29:00,13.6,-4.2,30.39,NNE,15,17.0,23.0,44,0.00,,,0.00,LWC V2.10 B1813,2013-04-05 19:29:00,
2013-04-05 11:34:00,13.5,-4.8,30.39,NNE,32,17.0,28.0,43,0.00,,,0.00,LWC V2.10 B1813,2013-04-05 19:34:00,
2013-04-05 11:39:00,13.2,-5.1,30.39,NE,38,15.0,28.0,43,0.00,,,0.00,LWC V2.10 B1813,2013-04-05 19:39:00,
2013-04-05 11:44:00,13.4,-4.4,30.38,NE,45,10.0,24.0,44,0.00,,,0.00,LWC V2.10 B1813,2013-04-05 19:44:00,
2013-04-05 11:49:00,13.0,-5.2,30.38,NNE,16,24.0,26.0,43,0.00,,,0.00,LWC V2.10 B1813,2013-04-05 19:49:00,
2013-04-05 11:54:00,13.3,-4.0,30.38,NNE,31,19.0,22.0,45,0.00,,,0.00,LWC V2.10 B1813,2013-04-05 19:54:00,
2013-04-05 11:59:00,13.7,-4.6,30.38,North,10,13.0,25.0,43,0.00,,,0.00,LWC V2.10 B1813,2013-04-05 19:59:00,
2013-04-05 12:04:00,14.0,-4.3,30.38,NE,42,11.0,22.0,43,0.00,,,0.00,LWC V2.10 B1813,2013-04-05 20:04:00,
2013-04-05 12:09:00,13.3,-5.0,30.38,NE,40,19.0,26.0,43,0.00,,,0.00,LWC V2.10 B1813,2013-04-05 20:09:00,
2013-04-05 12:14:00,12.8,-4.9,30.38,NE,36,22.0,28.0,44,0.00,,,0.00,LWC V2.10 B1813,2013-04-05 20:14:00,
2013-04-05 12:19:00,12.2,-6.0,30.38,NNE,17,22.0,26.0,43,0.00,,,0.00,LWC V2.10 B1813,2013-04-05 20:19:00,
2013-04-05 12:24:00,12.5,-5.2,30.38,NNE,30,17.0,24.0,44,0.00,,,0.00,LWC V2.10 B1813,2013-04-05 20:24:00,
2013-04-05 12:29:00,12.4,-4.8,30.37,NE,54,18.0,32.0,45,0.00,,,0.00,LWC V2.10 B1813,2013-04-05 20:29:00,
2013-04-05 12:34:00,13.0,-4.8,30.37,NE,50,18.0,23.0,44,0.00,,,0.00,LWC V2.10 B1813,2013-04-05 20:34:00,
2013-04-05 12:39:00,13.2,-4.6,30.36,NNE,25,12.0,18.0,44,0.00,,,0.00,LWC V2.10 B1813,2013-04-05 20:39:00,
2013-04-05 12:44:00,12.8,-4.5,30.36,NE,55,18.0,32.0,45,0.00,,,0.00,LWC V2.10 B1813,2013-04-05 20:44:00,
2013-04-05 12:49:00,12.8,-4.9,30.36,NE,44,12.0,25.0,44,0.00,,,0.00,LWC V2.10 B1813,2013-04-05 20:49:00,
2013-04-05 12:54:00,13.4,-4.9,30.36,NE,48,25.0,25.0,43,0.00,,,0.00,LWC V2.10 B1813,2013-04-05 20:54:00,
2013-04-05 12:59:00,13.9,-4.4,30.36,NNE,15,16.0,16.0,43,0.00,,,0.00,LWC V2.10 B1813,2013-04-05 20:59:00,
2013-04-05 13:04:00,13.9,-4.4,30.35,NNE,22,16.0,21.0,43,0.00,,,0.00,LWC V2.10 B1813,2013-04-05 21:04:00,
2013-04-05 13:09:00,14.0,-4.3,30.35,North,5,14.0,25.0,43,0.00,,,0.00,LWC V2.10 B1813,2013-04-05 21:09:00,
2013-04-05 13:14:00,14.0,-4.3,30.35,NNE,31,7.0,24.0,43,0.00,,,0.00,LWC V2.10 B1813,2013-04-05 21:14:00,
2013-04-05 13:19:00,14.3,-4.1,30.34,NNE,26,20.0,20.0,43,0.00,,,0.00,LWC V2.10 B1813,2013-04-05 21:19:00,
2013-04-05 13:24:00,14.5,-4.4,30.34,North,0,8.0,17.0,42,0.00,,,0.00,LWC V2.10 B1813,2013-04-05 21:24:00,
2013-04-05 13:29:00,14.7,-3.2,30.34,NE,51,6.0,17.0,44,0.00,,,0.00,LWC V2.10 B1813,2013-04-05 21:29:00,
2013-04-05 13:34:00,14.5,-4.4,30.34,NE,38,18.0,20.0,42,0.00,,,0.00,LWC V2.10 B1813,2013-04-05 21:34:00,
2013-04-05 13:39:00,14.5,-3.9,30.34,NNE,33,11.0,19.0,43,0.00,,,0.00,LWC V2.10 B1813,2013-04-05 21:39:00,
2013-04-05 13:44:00,14.8,-3.6,30.34,NNE,19,12.0,23.0,43,0.00,,,0.00,LWC V2.10 B1813,2013-04-05 21:44:00,
2013-04-05 13:49:00,14.8,-4.1,30.34,North,9,16.0,20.0,42,0.00,,,0.00,LWC V2.10 B1813,2013-04-05 21:49:00,
2013-04-05 13:54:00,14.9,-4.0,30.34,North,5,9.0,20.0,42,0.00,,,0.00,LWC V2.10 B1813,2013-04-05 21:54:00,
2013-04-05 13:59:00,14.7,-3.2,30.33,North,0,12.0,19.0,44,0.00,,,0.00,LWC V2.10 B1813,2013-04-05 21:59:00,
2013-04-05 14:04:00,14.8,-3.1,30.33,North,0,9.0,15.0,44,0.00,,,0.00,LWC V2.10 B1813,2013-04-05 22:04:00,
2013-04-05 14:09:00,15.0,-3.9,30.33,NNE,26,15.0,23.0,42,0.00,,,0.00,LWC V2.10 B1813,2013-04-05 22:09:00,
2013-04-05 14:14:00,14.6,-3.8,30.33,North,0,20.0,20.0,43,0.00,,,0.00,LWC V2.10 B1813,2013-04-05 22:14:00,
2013-04-05 14:19:00,14.4,-4.5,30.33,NNW,336,5.0,17.0,42,0.00,,,0.00,LWC V2.10 B1813,2013-04-05 22:19:00,
2013-04-05 14:24:00,14.6,-3.8,30.33,North,0,15.0,19.0,43,0.00,,,0.00,LWC V2.10 B1813,2013-04-05 22:24:00,
2013-04-05 14:29:00,14.6,-4.3,30.33,North,0,7.0,16.0,42,0.00,,,0.00,LWC V2.10 B1813,2013-04-05 22:29:00,
2013-04-05 14:34:00,14.8,-2.2,30.33,NW,310,6.0,7.0,46,0.00,,,0.00,LWC V2.10 B1813,2013-04-05 22:34:00,
2013-04-05 14:39:00,14.6,-3.8,30.33,NNE,27,15.0,17.0,43,0.00,,,0.00,LWC V2.10 B1813,2013-04-05 22:39:00,
2013-04-05 14:44:00,14.5,-4.4,30.33,NE,34,9.0,15.0,42,0.00,,,0.00,LWC V2.10 B1813,2013-04-05 22:44:00,
2013-04-05 14:49:00,14.6,-2.8,30.33,NNE,24,10.0,18.0,45,0.00,,,0.00,LWC V2.10 B1813,2013-04-05 22:49:00,
2013-04-05 14:54:00,14.5,-4.4,30.32,North,355,9.0,22.0,42,0.00,,,0.00,LWC V2.10 B1813,2013-04-05 22:54:00,
2013-04-05 14:59:00,14.6,-3.3,30.32,NE,40,11.0,14.0,44,0.00,,,0.00,LWC V2.10 B1813,2013-04-05 22:59:00,
2013-04-05 15:04:00,14.6,-1.9,30.32,North,355,8.0,19.0,47,0.00,,,0.00,LWC V2.10 B1813,2013-04-05 23:04:00,
2013-04-05 15:09:00,14.6,-3.3,30.32,North,355,5.0,22.0,44,0.00,,,0.00,LWC V2.10 B1813,2013-04-05 23:09:00,
2013-04-05 15:14:00,14.0,-4.3,30.32,North,0,7.0,16.0,43,0.00,,,0.00,LWC V2.10 B1813,2013-04-05 23:14:00,
2013-04-05 15:19:00,13.2,-4.6,30.32,NNW,329,3.0,15.0,44,0.00,,,0.00,LWC V2.10 B1813,2013-04-05 23:19:00,
2013-04-05 15:24:00,13.2,-4.1,30.32,North,0,8.0,17.0,45,0.00,,,0.00,LWC V2.10 B1813,2013-04-05 23:24:00,
2013-04-05 15:29:00,13.1,-5.2,30.31,NE,54,6.0,17.0,43,0.00,,,0.00,LWC V2.10 B1813,2013-04-05 23:29:00,
2013-04-05 15:34:00,13.1,-4.2,30.31,NE,34,10.0,14.0,45,0.00,,,0.00,LWC V2.10 B1813,2013-04-05 23:34:00,
2013-04-05 15:39:00,13.2,-4.6,30.31,North,355,5.0,18.0,44,0.00,,,0.00,LWC V2.10 B1813,2013-04-05 23:39:00,
2013-04-05 15:44:00,12.8,-4.9,30.31,NNW,334,10.0,18.0,44,0.00,,,0.00,LWC V2.10 B1813,2013-04-05 23:44:00,
2013-04-05 15:49:00,12.5,-5.2,30.31,North,11,14.0,24.0,44,0.00,,,0.00,LWC V2.10 B1813,2013-04-05 23:49:00,
2013-04-05 15:54:00,12.2,-5.0,30.31,NNE,30,8.0,14.0,45,0.00,,,0.00,LWC V2.10 B1813,2013-04-05 23:54:00,
2013-04-05 15:59:00,12.3,-5.4,30.30,North,5,18.0,20.0,44,0.00,,,0.00,LWC V2.10 B1813,2013-04-05 23:59:00,
2013-04-05 16:04:00,12.1,-5.1,30.30,North,9,7.0,18.0,45,0.00,,,0.00,LWC V2.10 B1813,2013-04-06 00:04:00,
2013-04-05 16:09:00,11.7,-5.5,30.31,North,0,12.0,20.0,45,0.00,,,0.00,LWC V2.10 B1813,2013-04-06 00:09:00,
2013-04-05 16:14:00,11.0,-6.1,30.31,NNE,32,17.0,20.0,45,0.00,,,0.00,LWC V2.10 B1813,2013-04-06 00:14:00,
2013-04-05 16:19:00,10.7,-6.0,30.31,North,11,8.0,20.0,46,0.00,,,0.00,LWC V2.10 B1813,2013-04-06 00:19:00,
2013-04-05 16:24:00,10.5,-6.1,30.31,NNE,24,12.0,21.0,46,0.00,,,0.00,LWC V2.10 B1813,2013-04-06 00:24:00,
2013-04-05 16:29:00,10.4,-6.2,30.30,NNE,29,4.0,18.0,46,0.00,,,0.00,LWC V2.10 B1813,2013-04-06 00:29:00,
2013-04-05 16:34:00,10.4,-6.2,30.30,NE,44,12.0,17.0,46,0.00,,,0.00,LWC V2.10 B1813,2013-04-06 00:34:00,
2013-04-05 16:39:00,10.6,-5.6,30.31,NE,55,11.0,20.0,47,0.00,,,0.00,LWC V2.10 B1813,2013-04-06 00:39:00,
2013-04-05 16:44:00,10.3,-6.8,30.30,North,10,8.0,17.0,45,0.00,,,0.00,LWC V2.10 B1813,2013-04-06 00:44:00,
2013-04-05 16:49:00,10.1,-6.5,30.31,North,355,8.0,19.0,46,0.00,,,0.00,LWC V2.10 B1813,2013-04-06 00:49:00,
2013-04-05 16:54:00,9.9,-6.3,30.30,North,0,16.0,18.0,47,0.00,,,0.00,LWC V2.10 B1813,2013-04-06 00:54:00,
2013-04-05 16:59:00,9.8,-5.9,30.30,NW,318,7.0,14.0,48,0.00,,,0.00,LWC V2.10 B1813,2013-04-06 00:59:00,
2013-04-05 17:04:00,10.0,-5.3,30.30,North,350,11.0,18.0,49,0.00,,,0.00,LWC V2.10 B1813,2013-04-06 01:04:00,
2013-04-05 17:09:00,10.1,-5.2,30.30,North,0,10.0,17.0,49,0.00,,,0.00,LWC V2.10 B1813,2013-04-06 01:09:00,
2013-04-05 17:14:00,10.0,-6.2,30.30,NNW,343,9.0,16.0,47,0.00,,,0.00,LWC V2.10 B1813,2013-04-06 01:14:00,
2013-04-05 17:19:00,9.9,-5.8,30.30,North,11,8.0,16.0,48,0.00,,,0.00,LWC V2.10 B1813,2013-04-06 01:19:00,
2013-04-05 17:24:00,9.9,-5.8,30.30,North,0,14.0,18.0,48,0.00,,,0.00,LWC V2.10 B1813,2013-04-06 01:24:00,
2013-04-05 17:29:00,9.7,-6.4,30.30,North,355,12.0,18.0,47,0.00,,,0.00,LWC V2.10 B1813,2013-04-06 01:29:00,
2013-04-05 17:34:00,9.4,-7.2,30.29,NNE,24,9.0,22.0,46,0.00,,,0.00,LWC V2.10 B1813,2013-04-06 01:34:00,
2013-04-05 17:39:00,9.0,-7.1,30.29,North,5,4.0,19.0,47,0.00,,,0.00,LWC V2.10 B1813,2013-04-06 01:39:00,
2013-04-05 17:44:00,8.5,-7.5,30.30,NNE,22,19.0,23.0,47,0.00,,,0.00,LWC V2.10 B1813,2013-04-06 01:44:00,
2013-04-05 17:49:00,8.3,-7.7,30.29,NE,53,14.0,24.0,47,0.00,,,0.00,LWC V2.10 B1813,2013-04-06 01:49:00,
2013-04-05 17:54:00,8.2,-7.4,30.29,NNE,19,16.0,22.0,48,0.00,,,0.00,LWC V2.10 B1813,2013-04-06 01:54:00,
2013-04-05 17:59:00,8.2,-6.6,30.29,NNW,334,8.0,14.0,50,0.00,,,0.00,LWC V2.10 B1813,2013-04-06 01:59:00,
2013-04-05 18:04:00,8.1,-7.1,30.29,North,0,6.0,20.0,49,0.00,,,0.00,LWC V2.10 B1813,2013-04-06 02:04:00,
2013-04-05 18:09:00,8.0,-6.7,30.29,NNE,20,16.0,18.0,50,0.00,,,0.00,LWC V2.10 B1813,2013-04-06 02:09:00,
2013-04-05 18:14:00,7.9,-7.2,30.29,North,355,16.0,22.0,49,0.00,,,0.00,LWC V2.10 B1813,2013-04-06 02:14:00,
2013-04-05 18:19:00,7.7,-7.0,30.29,NNE,26,12.0,14.0,50,0.00,,,0.00,LWC V2.10 B1813,2013-04-06 02:19:00,
2013-04-05 18:24:00,7.4,-7.7,30.29,NNE,33,12.0,19.0,49,0.00,,,0.00,LWC V2.10 B1813,2013-04-06 02:24:00,
2013-04-05 18:29:00,7.3,-7.4,30.29,NE,34,9.0,24.0,50,0.00,,,0.00,LWC V2.10 B1813,2013-04-06 02:29:00,
2013-04-05 18:34:00,6.9,-7.8,30.28,NNE,17,4.0,21.0,50,0.00,,,0.00,LWC V2.10 B1813,2013-04-06 02:34:00,
2013-04-05 18:39:00,6.7,-7.9,30.29,North,0,6.0,17.0,50,0.00,,,0.00,LWC V2.10 B1813,2013-04-06 02:39:00,
2013-04-05 18:44:00,6.5,-8.1,30.29,NNW,344,9.0,14.0,50,0.00,,,0.00,LWC V2.10 B1813,2013-04-06 02:44:00,
2013-04-05 18:49:00,6.5,-7.7,30.29,North,11,5.0,12.0,51,0.00,,,0.00,LWC V2.10 B1813,2013-04-06 02:49:00,
2013-04-05 18:54:00,6.4,-7.8,30.29,NNW,342,5.0,16.0,51,0.00,,,0.00,LWC V2.10 B1813,2013-04-06 02:54:00,
2013-04-05 18:59:00,6.2,-8.0,30.29,North,355,7.0,19.0,51,0.00,,,0.00,LWC V2.10 B1813,2013-04-06 02:59:00,
2013-04-05 19:04:00,5.9,-8.3,30.29,North,0,8.0,17.0,51,0.00,,,0.00,LWC V2.10 B1813,2013-04-06 03:04:00,
2013-04-05 19:09:00,5.6,-8.6,30.29,North,355,6.0,15.0,51,0.00,,,0.00,LWC V2.10 B1813,2013-04-06 03:09:00,
2013-04-05 19:14:00,5.5,-8.3,30.29,North,0,11.0,17.0,52,0.00,,,0.00,LWC V2.10 B1813,2013-04-06 03:14:00,
2013-04-05 19:19:00,5.4,-8.0,30.29,NNW,333,1.0,14.0,53,0.00,,,0.00,LWC V2.10 B1813,2013-04-06 03:19:00,
2013-04-05 19:24:00,5.3,-8.1,30.29,NNW,336,5.0,19.0,53,0.00,,,0.00,LWC V2.10 B1813,2013-04-06 03:24:00,
2013-04-05 19:29:00,5.0,-8.7,30.29,NNW,329,8.0,21.0,52,0.00,,,0.00,LWC V2.10 B1813,2013-04-06 03:29:00,
2013-04-05 19:34:00,4.8,-8.9,30.29,NNE,23,5.0,19.0,52,0.00,,,0.00,LWC V2.10 B1813,2013-04-06 03:34:00,
2013-04-05 19:39:00,4.5,-8.4,30.29,NNE,14,11.0,14.0,54,0.00,,,0.00,LWC V2.10 B1813,2013-04-06 03:39:00,
2013-04-05 19:44:00,4.3,-9.0,30.28,NNE,19,12.0,17.0,53,0.00,,,0.00,LWC V2.10 B1813,2013-04-06 03:44:00,
2013-04-05 19:49:00,4.1,-9.2,30.28,NNW,339,4.0,14.0,53,0.00,,,0.00,LWC V2.10 B1813,2013-04-06 03:49:00,
2013-04-05 19:54:00,3.9,-9.4,30.28,North,0,8.0,18.0,53,0.00,,,0.00,LWC V2.10 B1813,2013-04-06 03:54:00,
2013-04-05 19:59:00,3.7,-9.6,30.28,NE,35,5.0,16.0,53,0.00,,,0.00,LWC V2.10 B1813,2013-04-06 03:59:00,
2013-04-05 20:00:00,3.7,-9.6,30.28,North,355,10.0,16.0,53,0.00,,,0.00,LWC V2.10 B1813,2013-04-06 04:00:00,
2013-04-05 20:04:00,3.5,-9.7,30.28,NNE,20,7.0,20.0,53,0.00,,,0.00,LWC V2.10 B1813,2013-04-06 04:04:00,
2013-04-05 20:06:00,3.4,-9.8,30.28,NNW,346,9.0,14.0,53,0.00,,,0.00,LWC V2.10 B1813,2013-04-06 04:06:00,
2013-04-05 20:11:00,3.2,-9.7,30.28,North,10,10.0,19.0,54,0.00,,,0.00,LWC V2.10 B1813,2013-04-06 04:11:00,
2013-04-05 20:14:00,3.1,-9.7,30.28,NE,38,5.0,17.0,54,0.00,,,0.00,LWC V2.10 B1813,2013-04-06 04:14:00,
2013-04-05 20:19:00,3.0,-9.5,30.28,NNW,346,4.0,16.0,55,0.00,,,0.00,LWC V2.10 B1813,2013-04-06 04:19:00,
2013-04-05 20:24:00,2.8,-9.7,30.28,North,0,9.0,16.0,55,0.00,,,0.00,LWC V2.10 B1813,2013-04-06 04:24:00,
2013-04-05 20:29:00,2.8,-9.7,30.28,North,355,6.0,14.0,55,0.00,,,0.00,LWC V2.10 B1813,2013-04-06 04:29:00,
2013-04-05 20:34:00,2.6,-9.8,30.28,NNE,16,11.0,16.0,55,0.00,,,0.00,LWC V2.10 B1813,2013-04-06 04:34:00,
2013-04-05 20:39:00,2.4,-9.7,30.28,North,5,11.0,21.0,56,0.00,,,0.00,LWC V2.10 B1813,2013-04-06 04:39:00,
2013-04-05 20:44:00,2.3,-10.1,30.28,NE,54,7.0,15.0,55,0.00,,,0.00,LWC V2.10 B1813,2013-04-06 04:44:00,
2013-04-05 20:49:00,2.1,-9.9,30.28,North,0,10.0,13.0,56,0.00,,,0.00,LWC V2.10 B1813,2013-04-06 04:49:00,
2013-04-05 20:54:00,2.0,-10.4,30.28,North,355,6.0,20.0,55,0.00,,,0.00,LWC V2.10 B1813,2013-04-06 04:54:00,
2013-04-05 20:59:00,1.9,-10.1,30.28,NNW,342,6.0,16.0,56,0.00,,,0.00,LWC V2.10 B1813,2013-04-06 04:59:00,
2013-04-05 21:04:00,1.8,-10.2,30.28,North,0,12.0,18.0,56,0.00,,,0.00,LWC V2.10 B1813,2013-04-06 05:04:00,
2013-04-05 21:09:00,1.7,-10.3,30.28,NNE,12,9.0,13.0,56,0.00,,,0.00,LWC V2.10 B1813,2013-04-06 05:09:00,
2013-04-05 21:14:00,1.6,-10.4,30.28,North,355,12.0,12.0,56,0.00,,,0.00,LWC V2.10 B1813,2013-04-06 05:14:00,
2013-04-05 21:19:00,1.5,-10.2,30.27,NNE,24,8.0,11.0,57,0.00,,,0.00,LWC V2.10 B1813,2013-04-06 05:19:00,
2013-04-05 21:24:00,1.5,-10.2,30.27,NNE,13,7.0,15.0,57,0.00,,,0.00,LWC V2.10 B1813,2013-04-06 05:24:00,
2013-04-05 21:29:00,1.5,-10.2,30.28,NNE,17,16.0,16.0,57,0.00,,,0.00,LWC V2.10 B1813,2013-04-06 05:29:00,
2013-04-05 21:34:00,1.5,-10.2,30.28,NNE,13,6.0,11.0,57,0.00,,,0.00,LWC V2.10 B1813,2013-04-06 05:34:00,
2013-04-05 21:39:00,1.6,-10.1,30.28,North,9,10.0,15.0,57,0.00,,,0.00,LWC V2.10 B1813,2013-04-06 05:39:00,
2013-04-05 21:44:00,1.5,-10.5,30.28,North,355,9.0,10.0,56,0.00,,,0.00,LWC V2.10 B1813,2013-04-06 05:44:00,
2013-04-05 21:49:00,1.5,-10.2,30.28,North,5,8.0,11.0,57,0.00,,,0.00,LWC V2.10 B1813,2013-04-06 05:49:00,
2013-04-05 21:54:00,1.4,-10.3,30.28,NNE,29,2.0,9.0,57,0.00,,,0.00,LWC V2.10 B1813,2013-04-06 05:54:00,
2013-04-05 21:59:00,1.3,-10.3,30.28,NNW,348,14.0,14.0,57,0.00,,,0.00,LWC V2.10 B1813,2013-04-06 05:59:00,
2013-04-05 22:04:00,1.2,-10.1,30.28,North,0,5.0,16.0,58,0.00,,,0.00,LWC V2.10 B1813,2013-04-06 06:04:00,
2013-04-05 22:09:00,1.1,-10.2,30.28,North,10,3.0,16.0,58,0.00,,,0.00,LWC V2.10 B1813,2013-04-06 06:09:00,
2013-04-05 22:14:00,1.1,-10.2,30.28,NNW,330,5.0,12.0,58,0.00,,,0.00,LWC V2.10 B1813,2013-04-06 06:14:00,
2013-04-05 22:19:00,1.1,-10.5,30.27,North,9,10.0,12.0,57,0.00,,,0.00,LWC V2.10 B1813,2013-04-06 06:19:00,
2013-04-05 22:24:00,1.1,-10.2,30.27,NNE,21,6.0,16.0,58,0.00,,,0.00,LWC V2.10 B1813,2013-04-06 06:24:00,
2013-04-05 22:29:00,1.0,-10.3,30.28,North,355,6.0,13.0,58,0.00,,,0.00,LWC V2.10 B1813,2013-04-06 06:29:00,
2013-04-05 22:34:00,0.9,-10.4,30.28,North,355,7.0,14.0,58,0.00,,,0.00,LWC V2.10 B1813,2013-04-06 06:34:00,
2013-04-05 22:39:00,0.8,-10.1,30.28,NNE,14,5.0,15.0,59,0.00,,,0.00,LWC V2.10 B1813,2013-04-06 06:39:00,
2013-04-05 22:44:00,0.6,-10.7,30.27,NNW,341,5.0,15.0,58,0.00,,,0.00,LWC V2.10 B1813,2013-04-06 06:44:00,
2013-04-05 22:49:00,0.8,-10.1,30.27,NNW,344,13.0,13.0,59,0.00,,,0.00,LWC V2.10 B1813,2013-04-06 06:49:00,
2013-04-05 22:54:00,0.8,-10.1,30.27,North,0,2.0,10.0,59,0.00,,,0.00,LWC V2.10 B1813,2013-04-06 06:54:00,
2013-04-05 22:59:00,0.6,-10.3,30.27,North,11,8.0,10.0,59,0.00,,,0.00,LWC V2.10 B1813,2013-04-06 06:59:00,
2013-04-05 23:04:00,0.5,-10.4,30.27,North,355,3.0,9.0,59,0.00,,,0.00,LWC V2.10 B1813,2013-04-06 07:04:00,
2013-04-05 23:09:00,0.4,-10.2,30.27,NNE,31,3.0,9.0,60,0.00,,,0.00,LWC V2.10 B1813,2013-04-06 07:09:00,
2013-04-05 23:14:00,0.1,-10.4,30.26,North,0,10.0,10.0,60,0.00,,,0.00,LWC V2.10 B1813,2013-04-06 07:14:00,
2013-04-05 23:19:00,-0.1,-10.6,30.26,NNE,17,2.0,7.0,60,0.00,,,0.00,LWC V2.10 B1813,2013-04-06 07:19:00,
2013-04-05 23:24:00,-0.3,-10.8,30.26,NNW,336,12.0,12.0,60,0.00,,,0.00,LWC V2.10 B1813,2013-04-06 07:24:00,
2013-04-05 23:29:00,-0.1,-10.3,30.26,NNE,13,7.0,10.0,61,0.00,,,0.00,LWC V2.10 B1813,2013-04-06 07:29:00,
2013-04-05 23:34:00,0.0,-10.5,30.26,NNW,334,3.0,8.0,60,0.00,,,0.00,LWC V2.10 B1813,2013-04-06 07:34:00,
2013-04-05 23:39:00,0.1,-10.4,30.26,NNW,336,4.0,10.0,60,0.00,,,0.00,LWC V2.10 B1813,2013-04-06 07:39:00,
2013-04-05 23:44:00,0.1,-10.4,30.25,NNE,26,4.0,8.0,60,0.00,,,0.00,LWC V2.10 B1813,2013-04-06 07:44:00,
2013-04-05 23:49:00,0.1,-10.4,30.25,North,0,1.0,7.0,60,0.00,,,0.00,LWC V2.10 B1813,2013-04-06 07:49:00,
2013-04-05 23:54:00,-0.1,-10.6,30.25,NW,325,1.0,4.0,60,0.00,,,0.00,LWC V2.10 B1813,2013-04-06 07:54:00,
2013-04-05 23:59:00,-0.4,-10.9,30.25,NNW,336,2.0,7.0,60,0.00,,,0.00,LWC V2.10 B1813,2013-04-06 07:59:00,